Regional Weather Roundup
Issued by NWS

Home | Current Version | Previous Version | Text Only | Print | Product List | Glossary Off
Versions: 1 2 3 4 5 6 7 8 9 10 11 12 13 14 15 16 17 18 19 20 21 22 23 24 25 26 27 28 29 30 31 32 33 34 35 36 37 38 39 40 41 42 43 44 45 46 47 48 49 50

000
ASUS43 KLMK 051002
RWRKY
KENTUCKY REGIONAL WEATHER ROUNDUP
NATIONAL WEATHER SERVICE LOUISVILLE KY
600 AM EDT TUE MAY 05 2015

NOTE "FAIR" INDICATES FEW OR NO CLOUDS BELOW 12,000 FEET
WITH NO SIGNIFICANT WEATHER AND/OR OBSTRUCTIONS TO VISIBILITY.

KYZ001>023-026-027-061>063-070>075-051100-
WESTERN AND SOUTH CENTRAL KENTUCKY

CITY           SKY/WX    TMP DP  RH WIND       PRES   REMARKS
PADUCAH        CLEAR     65  52  62 S5        30.19S
HENDERSON      CLEAR     61  50  67 S5        30.20S
OWENSBORO      CLEAR     60  55  83 S5        30.22S
HOPKINSVILLE   NOT AVBL
BOWLING GREEN  CLEAR     55  52  89 CALM      30.25R
GLASGOW        NOT AVBL
$$

KYZ024-025-028>034-038-045-046-053-051100-
NORTH CENTRAL KENTUCKY

CITY           SKY/WX    TMP DP  RH WIND       PRES   REMARKS
LOUISVILLE/SDF PTCLDY    64  56  75 E3        30.23R
LOUISVILLE/LOU CLEAR     61  56  83 CALM      30.24R
FORT KNOX      CLEAR     59  53  82 S2        30.23R
$$

KYZ035>037-039>044-047>052-055>060-089>105-051100-
NORTHEAST KENTUCKY

CITY           SKY/WX    TMP DP  RH WIND       PRES   REMARKS
LEXINGTON      CLEAR     60  52  74 S6        30.26R
COVINGTON      PTCLDY    60  56  86 CALM      30.23S
FRANKFORT      CLEAR     57  52  83 CALM      30.24R
$$

KYZ054-064>069-076>088-106>120-051100-
SOUTHEAST KENTUCKY

CITY           SKY/WX    TMP DP  RH WIND       PRES   REMARKS
JACKSON        CLOUDY    60  50  69 CALM      30.29R
LONDON         PTCLDY    55  50  83 CALM      30.29R
SOMERSET       NOT AVBL
MIDDLESBORO    CLEAR     49  49 100 CALM      30.32S
MONTICELLO     SUNNY     53  53 100 CALM      30.31R
$$



USA.gov is the U.S. government's official web portal to all federal, state and local government web resources and services.